Skip Page Navigation
NASA JPL Caltech
NASA Logo - Jet Propulsion Laboratory + View the NASA Portal
+ Center for Near-Earth Object Studies
JPL Home Earth Solar System Stars & Galaxies Technology
JPL Solar System Dynamics
BODIES ORBITS EPHEMERIDES TOOLS PHYSICAL DATA DISCOVERY FAQ SITE MAP
IMPORTANT: The SSD Announcement email list is now available. Major changes are coming in the near future, including possible hostname and/or URL changes. To be notified of such changes, subscribe to this email list.

Please visit this page for more details.


JPL Small-Body Database Browser
Search: [ help ]  
160307 (2003 GA6)
Classification: Main-belt Asteroid          SPK-ID: 2160307
Ephemeris | Orbit Diagram | Orbital Elements | Mission Design | Physical Parameters | Discovery Circumstances | Close-Approach Data ]

[ show orbit diagram ]
Orbital Elements at Epoch 2459000.5 (2020-May-31.0) TDB
Reference: JPL 15 (heliocentric ecliptic J2000)
 Element Value Uncertainty (1-sigma)   Units 
e .162507941396316 4.3699e-08  
a 2.35416620965272 1.2499e-08 au
q 1.971595505217289 1.0108e-07 au
i 3.299003863103934 4.8271e-06 deg
node 63.10620806424967 8.5601e-05 deg
peri 191.099073149227 8.7111e-05 deg
M 235.2443545392018 1.6673e-05 deg
tp 2459457.705889681110
(2021-Aug-31.20588968)
6.2868e-05 TDB
period 1319.332040464013
3.61
1.0507e-05
2.877e-08
d
yr
n .2728653507674892 2.1731e-09 deg/d
Q 2.736736914088152 1.453e-08 au
  Orbit Determination Parameters
   # obs. used (total)      439  
   data-arc span      7067 days (19.35 yr)  
   first obs. used      2000-08-29  
   last obs. used      2020-01-04  
   planetary ephem.      DE431  
   SB-pert. ephem.      SB431-N16  
   condition code      0  
   norm. resid. RMS      .60509  
   source      ORB  
   producer      Otto Matic  
   solution date      2020-Jan-29 20:31:20  

Additional Information
 Earth MOID = .957079 au 
 Jupiter MOID = 2.30568 au 
 T_jup = 3.535 
[ show covariance matrix ]

Ephemeris | Orbit Diagram | Orbital Elements | Mission Design | Physical Parameters | Discovery Circumstances | Close-Approach Data ]

Physical Parameter Table
Parameter Symbol Value Units Sigma Reference Notes
absolute magnitude H 16.4   n/a MPO454060  

160307 (2003 GA6)          Discovered 2003-Apr-01 by LINEAR at Socorro
Reference: 20070730/Numbers.arcLast Updated: 2007-08-06

[ show close-approach data ]
Ephemeris | Orbit Diagram | Orbital Elements | Mission Design | Physical Parameters | Discovery Circumstances | Close-Approach Data ]
ABOUT SSD CREDITS/AWARDS PRIVACY/COPYRIGHT GLOSSARY LINKS
FirstGov 2020-May-28 06:06 UT
(server date/time)  
NASA Home Page
Site Manager:   Ryan S. Park
Webmaster  Alan B. Chamberlin